Rockland, ME

10:38 AM EDT on June 22, 2017 (GMT -0400)
Knox County Regional

Weather History for KRKD - September, 2012

Change the Weather History Date:

Sunday, September 16, 2012

  Actual Average Record
Temperature  
Mean Temperature 53 °F -  
Max Temperature 64 °F 64 °F 82 °F (2015)
Min Temperature 42 °F 49 °F 37 °F (2007)
Degree Days  
Heating Degree Days 12    
Growing Degree Days 3 (Base 50)    
Moisture  
Dew Point 39 °F    
Average Humidity 65    
Maximum Humidity 100    
Minimum Humidity 34    
Precipitation  
Precipitation 0.00 in - - ()
Sea Level Pressure  
Sea Level Pressure 29.98 in    
Wind  
Wind Speed 6 mph (WNW)    
Max Wind Speed 16 mph    
Max Gust Speed 24 mph    
Visibility 10 miles    
Events      
Averages and records for this station are not official NWS values.
T = Trace of Precipitation, MM = Missing Value Source: NWS Daily Summary

Daily Weather History Graph

Daily Weather History Graph

Search for Another Location

Airport or City:

Trip Planner

Search our weather history database for the weather conditions in past years. The results will help you decide how hot, cold, wet, or windy it might be!

Date:

Astronomy

Sep. 16, 2012 Rise Set
Actual Time 6:17 AM EDT 6:44 PM EDT
Civil Twilight 5:48 AM EDT 7:13 PM EDT
Nautical Twilight 5:13 AM EDT 7:47 PM EDT
Astronomical Twilight 4:38 AM EDT 8:22 PM EDT
Moon 6:55 AM EDT (9/16) 6:42 PM EDT (9/16)
Length of Visible Light 13h 24m
Length of Day
12h 26m
New Moon, 0% of the Moon is Illuminated
Sep 16
New Moon
Sep 22
First Quarter
Sep 29
Full
Oct 8
Last Quarter
Oct 15
New

Hourly Weather History & Observations

Time (EDT) Temp. Windchill Dew Point Humidity Pressure Visibility Wind Dir Wind Speed Gust Speed Precip Events Conditions
12:15 AM 50.0 °F - 44.6 °F 82% 29.99 in 10.0 mi WNW 3.5 mph - N/A   Clear
12:35 AM 44.6 °F 43.1 °F 42.8 °F 93% 29.99 in 10.0 mi West 3.5 mph - N/A   Clear
12:55 AM 44.6 °F 43.1 °F 44.6 °F 100% 29.99 in 10.0 mi WNW 3.5 mph - N/A   Clear
1:15 AM 44.6 °F 42.2 °F 42.8 °F 93% 29.99 in 10.0 mi WNW 4.6 mph - N/A   Clear
1:35 AM 46.4 °F 45.2 °F 44.6 °F 93% 29.99 in 10.0 mi West 3.5 mph - N/A   Clear
1:55 AM 46.4 °F 44.3 °F 44.6 °F 93% 29.98 in 10.0 mi West 4.6 mph - N/A   Clear
2:15 AM 46.4 °F 44.3 °F 44.6 °F 93% 29.98 in 10.0 mi West 4.6 mph - N/A   Clear
2:35 AM 48.2 °F - 44.6 °F 87% 29.97 in 10.0 mi WNW 3.5 mph - N/A   Clear
2:55 AM 46.4 °F 45.2 °F 44.6 °F 93% 29.97 in 10.0 mi West 3.5 mph - N/A   Clear
3:15 AM 46.4 °F - 44.6 °F 93% 29.96 in 10.0 mi Calm Calm - N/A   Clear
3:35 AM 44.6 °F - 42.8 °F 93% 29.97 in 10.0 mi Calm Calm - N/A   Clear
3:55 AM 44.6 °F 43.1 °F 42.8 °F 93% 29.97 in 10.0 mi WSW 3.5 mph - N/A   Clear
4:15 AM 42.8 °F 41.1 °F 42.8 °F 100% 29.98 in 10.0 mi West 3.5 mph - N/A   Clear
4:35 AM 44.6 °F - 42.8 °F 93% 29.98 in 10.0 mi Calm Calm - N/A   Clear
4:55 AM 44.6 °F - 42.8 °F 93% 29.98 in 10.0 mi Calm Calm - N/A   Clear
5:15 AM 44.6 °F - 42.8 °F 93% 29.99 in 10.0 mi Calm Calm - N/A   Clear
5:35 AM 42.8 °F 40.1 °F 42.8 °F 100% 29.99 in 10.0 mi WNW 4.6 mph - N/A   Clear
5:55 AM 44.6 °F 40.7 °F 39.2 °F 81% 30.00 in 10.0 mi West 6.9 mph - N/A   Clear
6:15 AM 44.6 °F 40.7 °F 41.0 °F 87% 30.00 in 10.0 mi West 6.9 mph - N/A   Clear
6:55 AM 46.4 °F 43.5 °F 41.0 °F 81% 30.01 in 10.0 mi WNW 5.8 mph - N/A   Clear
7:15 AM 48.2 °F - 39.2 °F 71% 30.01 in 10.0 mi West 10.4 mph - N/A   Clear
7:35 AM 48.2 °F - 41.0 °F 76% 30.01 in 10.0 mi West 13.8 mph - N/A   Clear
8:15 AM 51.8 °F - 39.2 °F 62% 30.02 in 10.0 mi West 12.7 mph 18.4 mph N/A   Clear
8:35 AM 51.8 °F - 39.2 °F 62% 30.02 in 10.0 mi West 10.4 mph 18.4 mph N/A   Clear
8:55 AM 53.6 °F - 39.2 °F 58% 30.02 in 10.0 mi WNW 10.4 mph 18.4 mph N/A   Clear
9:15 AM 53.6 °F - 35.6 °F 51% 30.02 in 10.0 mi WNW 11.5 mph 20.7 mph N/A   Clear
9:35 AM 53.6 °F - 35.6 °F 51% 30.01 in 10.0 mi WNW 16.1 mph 23.0 mph N/A   Clear
9:55 AM 55.4 °F - 35.6 °F 47% 30.02 in 10.0 mi WNW 10.4 mph 17.3 mph N/A   Clear
10:15 AM 55.4 °F - 35.6 °F 47% 30.01 in 10.0 mi WNW 11.5 mph 17.3 mph N/A   Clear
10:35 AM 55.4 °F - 35.6 °F 47% 30.01 in 10.0 mi WNW 15.0 mph 20.7 mph N/A   Clear
10:55 AM 55.4 °F - 35.6 °F 47% 30.00 in 10.0 mi WNW 11.5 mph 24.2 mph N/A   Clear
11:15 AM 57.2 °F - 35.6 °F 44% 29.99 in 10.0 mi WNW 13.8 mph - N/A   Clear
11:35 AM 57.2 °F - 35.6 °F 44% 29.99 in 10.0 mi West 16.1 mph 20.7 mph N/A   Clear
11:55 AM 57.2 °F - 37.4 °F 48% 29.99 in 10.0 mi WNW 6.9 mph 18.4 mph N/A   Clear
12:15 PM 57.2 °F - 37.4 °F 48% 29.98 in 10.0 mi WNW 11.5 mph 18.4 mph N/A   Clear
12:35 PM 59.0 °F - 37.4 °F 45% 29.98 in 10.0 mi West 13.8 mph - N/A   Clear
12:56 PM 60.8 °F - 37.4 °F 42% 29.97 in 10.0 mi West 15.0 mph 20.7 mph N/A   Clear
1:15 PM 60.8 °F - 37.4 °F 42% 29.97 in 10.0 mi WNW 15.0 mph 19.6 mph N/A   Clear
1:35 PM 60.8 °F - 35.6 °F 39% 29.96 in 10.0 mi WNW 10.4 mph 19.6 mph N/A   Clear
1:55 PM 60.8 °F - 37.4 °F 42% 29.95 in 10.0 mi West 13.8 mph 19.6 mph N/A   Clear
2:15 PM 62.6 °F - 37.4 °F 39% 29.96 in 10.0 mi WNW 15.0 mph 21.9 mph N/A   Clear
2:35 PM 62.6 °F - 37.4 °F 39% 29.95 in 10.0 mi West 11.5 mph 18.4 mph N/A   Clear
2:55 PM 62.6 °F - 35.6 °F 37% 29.95 in 10.0 mi WNW 10.4 mph 19.6 mph N/A   Clear
3:15 PM 62.6 °F - 35.6 °F 37% 29.94 in 10.0 mi West 15.0 mph 21.9 mph N/A   Clear
3:35 PM 62.6 °F - 35.6 °F 37% 29.94 in 10.0 mi WNW 13.8 mph 19.6 mph N/A   Clear
3:55 PM 62.6 °F - 37.4 °F 39% 29.93 in 10.0 mi West 15.0 mph - N/A   Clear
4:35 PM 64.4 °F - 35.6 °F 34% 29.93 in 10.0 mi WNW 11.5 mph 20.7 mph N/A   Clear
4:55 PM 62.6 °F - 35.6 °F 37% 29.93 in 10.0 mi WNW 10.4 mph - N/A   Clear
5:15 PM 62.6 °F - 35.6 °F 37% 29.93 in 10.0 mi West 15.0 mph - N/A   Clear
5:35 PM 62.6 °F - 35.6 °F 37% 29.93 in 10.0 mi West 6.9 mph - N/A   Clear
5:55 PM 62.6 °F - 35.6 °F 37% 29.94 in 10.0 mi WNW 5.8 mph - N/A   Clear
6:15 PM 60.8 °F - 37.4 °F 42% 29.94 in 10.0 mi West 5.8 mph - N/A   Clear
6:35 PM 57.2 °F - 37.4 °F 48% 29.95 in 10.0 mi WNW 4.6 mph - N/A   Clear
6:55 PM 53.6 °F - 39.2 °F 58% 29.96 in 10.0 mi Calm Calm - N/A   Clear
7:15 PM 51.8 °F - 39.2 °F 62% 29.96 in 10.0 mi Calm Calm - N/A   Clear
7:35 PM 50.0 °F - 42.8 °F 76% 29.97 in 10.0 mi South 3.5 mph - N/A   Clear
7:55 PM 51.8 °F - 41.0 °F 67% 29.98 in 10.0 mi West 4.6 mph - N/A   Clear
8:15 PM 50.0 °F - 39.2 °F 66% 29.98 in 10.0 mi WNW 4.6 mph - N/A   Clear
8:35 PM 50.0 °F - 42.8 °F 76% 29.99 in 10.0 mi WNW 5.8 mph - N/A   Clear
8:55 PM 46.4 °F 45.2 °F 39.2 °F 76% 29.99 in 10.0 mi WSW 3.5 mph - N/A   Clear
9:15 PM 51.8 °F - 41.0 °F 67% 29.99 in 10.0 mi Calm Calm - N/A   Clear
9:35 PM 50.0 °F - 41.0 °F 71% 30.00 in 10.0 mi WNW 4.6 mph - N/A   Clear
9:55 PM 48.2 °F - 41.0 °F 76% 30.00 in 10.0 mi NW 4.6 mph - N/A   Clear
10:15 PM 46.4 °F 44.3 °F 39.2 °F 76% 30.00 in 10.0 mi NW 4.6 mph - N/A   Clear
10:35 PM 51.8 °F - 39.2 °F 62% 30.01 in 10.0 mi NNW 5.8 mph - N/A   Clear
10:55 PM 48.2 °F - 37.4 °F 66% 30.01 in 10.0 mi West 5.8 mph - N/A   Clear
11:15 PM 48.2 °F - 39.2 °F 71% 30.01 in 10.0 mi West 5.8 mph - N/A   Clear
11:35 PM 48.2 °F - 39.2 °F 71% 30.01 in 10.0 mi Calm Calm - N/A   Clear
11:55 PM 46.4 °F 45.2 °F 39.2 °F 76% 30.01 in 10.0 mi WNW 3.5 mph - N/A   Clear